TimePDT,TemperatureF,Dew PointF,Humidity,Sea Level PressureIn,VisibilityMPH,Wind Direction,Wind SpeedMPH,Gust SpeedMPH,PrecipitationIn,Events,Conditions,WindDirDegrees,DateUTC
12:56 AM,71.1,43.0,36,30.03,10.0,WNW,5.8,-,N/A,,Clear,290,2013-07-31 07:56:00
1:56 AM,71.1,43.0,36,30.01,10.0,West,9.2,-,N/A,,Clear,270,2013-07-31 08:56:00
2:56 AM,66.9,43.0,42,30.01,10.0,West,5.8,-,N/A,,Clear,280,2013-07-31 09:56:00
3:56 AM,63.0,43.0,48,30.01,10.0,WNW,4.6,-,N/A,,Clear,300,2013-07-31 10:56:00
4:56 AM,63.0,42.1,46,30.01,10.0,WNW,5.8,-,N/A,,Clear,290,2013-07-31 11:56:00
5:56 AM,62.1,43.0,50,30.03,10.0,ENE,4.6,-,N/A,,Clear,70,2013-07-31 12:56:00
6:56 AM,63.0,42.1,46,30.04,10.0,Calm,Calm,-,N/A,,Clear,0,2013-07-31 13:56:00
7:56 AM,71.1,43.0,36,30.05,10.0,Calm,Calm,-,N/A,,Clear,0,2013-07-31 14:56:00
8:56 AM,77.0,45.0,32,30.05,10.0,Calm,Calm,-,N/A,,Clear,0,2013-07-31 15:56:00
9:56 AM,82.9,39.9,22,30.03,10.0,Calm,Calm,-,N/A,,Clear,0,2013-07-31 16:56:00
10:56 AM,87.1,36.0,16,30.02,10.0,Variable,3.5,-,N/A,,Clear,0,2013-07-31 17:56:00
11:56 AM,91.9,28.9,11,30.00,10.0,East,4.6,-,N/A,,Clear,100,2013-07-31 18:56:00
12:56 PM,95.0,28.9,10,29.97,10.0,Calm,Calm,-,N/A,,Clear,0,2013-07-31 19:56:00
1:56 PM,95.0,30.0,10,29.95,10.0,SSW,10.4,17.3,N/A,,Clear,210,2013-07-31 20:56:00
2:56 PM,95.0,37.9,14,29.95,10.0,West,18.4,23.0,N/A,,Clear,260,2013-07-31 21:56:00
3:56 PM,93.0,39.9,16,29.94,10.0,WSW,19.6,-,N/A,,Clear,240,2013-07-31 22:56:00
4:56 PM,90.0,42.1,19,29.94,10.0,SW,19.6,28.8,N/A,,Clear,230,2013-07-31 23:56:00
5:56 PM,87.1,39.9,19,29.94,10.0,West,23.0,-,N/A,,Clear,260,2013-08-01 00:56:00
6:56 PM,82.9,43.0,24,29.94,10.0,WSW,17.3,-,N/A,,Clear,250,2013-08-01 01:56:00
7:56 PM,79.0,43.0,28,29.94,10.0,WSW,18.4,23.0,N/A,,Clear,240,2013-08-01 02:56:00
8:56 PM,75.9,43.0,31,29.94,10.0,WSW,23.0,-,N/A,,Clear,240,2013-08-01 03:56:00
9:56 PM,73.0,39.9,30,29.97,10.0,WSW,12.7,-,N/A,,Clear,240,2013-08-01 04:56:00
10:56 PM,75.9,32.0,20,29.95,10.0,WSW,17.3,-,N/A,,Clear,250,2013-08-01 05:56:00
11:56 PM,75.0,37.0,25,29.94,10.0,WSW,15.0,-,N/A,,Clear,250,2013-08-01 06:56:00